TimeMDT,TemperatureF,Dew PointF,Humidity,Sea Level PressureIn,VisibilityMPH,Wind Direction,Wind SpeedMPH,Gust SpeedMPH,PrecipitationIn,Events,Conditions,WindDirDegrees,DateUTC
12:53 AM,45.0,41.0,86,29.27,8.0,West,5.8,-,N/A,,Unknown,270,2014-03-27 06:53:00
1:53 AM,46.9,39.9,77,29.26,10.0,NNW,25.3,34.5,N/A,,Unknown,340,2014-03-27 07:53:00
2:53 AM,45.0,35.1,68,29.29,10.0,North,32.2,38.0,N/A,,Unknown,350,2014-03-27 08:53:00
3:53 AM,42.1,30.0,62,29.32,10.0,North,17.3,27.6,N/A,,Unknown,350,2014-03-27 09:53:00
4:53 AM,39.0,32.0,76,29.37,10.0,North,17.3,-,0.00,Rain,Light Rain,350,2014-03-27 10:53:00
5:53 AM,37.0,32.0,82,29.42,10.0,NNW,16.1,-,0.02,Rain,Light Rain,340,2014-03-27 11:53:00
6:53 AM,35.1,30.9,85,29.46,8.0,NNW,23.0,-,0.01,Snow,Light Snow,340,2014-03-27 12:53:00
7:53 AM,35.1,30.0,82,29.53,10.0,NNW,19.6,-,0.00,,Unknown,340,2014-03-27 13:53:00
8:53 AM,34.0,28.9,82,29.58,10.0,NNW,25.3,33.4,N/A,,Unknown,340,2014-03-27 14:53:00
9:53 AM,34.0,27.0,75,29.63,10.0,North,27.6,34.5,N/A,,Unknown,350,2014-03-27 15:53:00
10:53 AM,37.9,26.1,62,29.66,10.0,North,20.7,-,N/A,,Unknown,350,2014-03-27 16:53:00
11:53 AM,42.1,27.0,55,29.68,10.0,North,21.9,-,N/A,,Unknown,350,2014-03-27 17:53:00
12:53 PM,46.0,28.0,50,29.68,10.0,NNW,19.6,28.8,N/A,,Unknown,340,2014-03-27 18:53:00
1:53 PM,48.0,28.9,48,29.68,10.0,North,19.6,31.1,N/A,,Unknown,350,2014-03-27 19:53:00
2:53 PM,48.9,28.9,46,29.68,10.0,NNW,20.7,25.3,N/A,,Unknown,340,2014-03-27 20:53:00
3:53 PM,53.1,28.0,38,29.68,10.0,NNW,17.3,25.3,N/A,,Unknown,340,2014-03-27 21:53:00
4:53 PM,51.1,26.1,38,29.71,10.0,North,12.7,-,N/A,,Unknown,350,2014-03-27 22:53:00
5:53 PM,48.9,27.0,43,29.74,10.0,NNE,6.9,-,N/A,,Unknown,30,2014-03-27 23:53:00
6:53 PM,46.0,27.0,47,29.77,10.0,NE,9.2,-,N/A,,Unknown,40,2014-03-28 00:53:00
7:53 PM,39.0,28.0,65,29.83,10.0,ENE,12.7,-,N/A,,Unknown,70,2014-03-28 01:53:00
8:53 PM,34.0,26.1,73,29.88,10.0,ESE,6.9,-,N/A,,Unknown,110,2014-03-28 02:53:00
9:53 PM,34.0,26.1,73,29.92,10.0,East,5.8,-,N/A,,Unknown,90,2014-03-28 03:53:00
10:53 PM,32.0,25.0,75,29.96,10.0,Calm,Calm,-,N/A,,Unknown,0,2014-03-28 04:53:00
11:53 PM,30.9,26.1,82,29.97,10.0,East,4.6,-,N/A,,Unknown,80,2014-03-28 05:53:00